Tracking 28920 objects as of 26-May-2024
HD Live streaming from Space Station
objects crossing your sky now

STARLINK-31400

Track STARLINK-31400 now!
10-day predictions
STARLINK-31400 is classified as:


NORAD ID: 59405
Int'l Code: 2024-064H
Perigee: 450.2 km
Apogee: 452.1 km
Inclination: 43.0 °
Period: 93.5 minutes
Semi major axis: 6822 km
RCS: Unknown
Launch date: April 5, 2024
Source: United States (US)
Launch site: AIR FORCE EASTERN TEST RANGE (AFETR)
Your satellite tracking list
Your tracking list is empty




NASA's NSSDC Master Catalog

Two Line Element Set (TLE):
1 59405U 24064H   24147.47122981  .00005413  00000-0  13669-3 0  9992
2 59405  43.0005 169.3104 0001406 274.3754  85.6942 15.40712864  9139
Source of the keplerian elements: AFSPC